"Serial No","Timestamp","Temperature","Humidity"
"1401561278","2014/06/01 00:04:38","24.5","72"
"1401561585","2014/06/01 00:09:45","24.5","73"
"1401561893","2014/06/01 00:14:53","24.5","74"
"1401562201","2014/06/01 00:20:01","24.5","74"
"1401562508","2014/06/01 00:25:08","24.5","73"
"1401562816","2014/06/01 00:30:16","24.5","73"
"1401563123","2014/06/01 00:35:23","24.6","72"
"1401563380","2014/06/01 00:39:40","24.6","72"
"1401563687","2014/06/01 00:44:47","24.6","72"
"1401563995","2014/06/01 00:49:55","24.6","72"
"1401564303","2014/06/01 00:55:03","24.6","71"
"1401564610","2014/06/01 01:00:10","24.6","71"
"1401564918","2014/06/01 01:05:18","24.6","71"
"1401565226","2014/06/01 01:10:26","24.6","71"
"1401565533","2014/06/01 01:15:33","24.5","70"
"1401565841","2014/06/01 01:20:41","24.5","70"
"1401566148","2014/06/01 01:25:48","24.5","69"
"1401566456","2014/06/01 01:30:56","24.4","69"
"1401566764","2014/06/01 01:36:04","24.4","69"
"1401567071","2014/06/01 01:41:11","24.3","68"
"1401567328","2014/06/01 01:45:28","24.3","69"
"1401567635","2014/06/01 01:50:35","24.3","69"
"1401567943","2014/06/01 01:55:43","24.2","69"
"1401568250","2014/06/01 02:00:50","24.2","69"
"1401568558","2014/06/01 02:05:58","24.2","69"
"1401568866","2014/06/01 02:11:06","24.1","70"
"1401569173","2014/06/01 02:16:13","24.1","70"
"1401569481","2014/06/01 02:21:21","24.1","70"
"1401569788","2014/06/01 02:26:28","24.1","71"
"1401570096","2014/06/01 02:31:36","24","71"
"1401570404","2014/06/01 02:36:44","24","72"
"1401570711","2014/06/01 02:41:51","24","72"
"1401571019","2014/06/01 02:46:59","24","72"
"1401571327","2014/06/01 02:52:07","24","72"
"1401571583","2014/06/01 02:56:23","23.9","73"
"1401571891","2014/06/01 03:01:31","23.9","73"
"1401572198","2014/06/01 03:06:38","23.9","73"
"1401572506","2014/06/01 03:11:46","23.9","73"
"1401572813","2014/06/01 03:16:53","23.9","73"
"1401573121","2014/06/01 03:22:01","23.8","73"
"1401573429","2014/06/01 03:27:09","23.8","73"
"1401573736","2014/06/01 03:32:16","23.8","73"
"1401574044","2014/06/01 03:37:24","23.8","73"
"1401574351","2014/06/01 03:42:31","23.8","73"
"1401574659","2014/06/01 03:47:39","23.8","73"
"1401574967","2014/06/01 03:52:47","23.8","73"
"1401575274","2014/06/01 03:57:54","23.8","73"
"1401575531","2014/06/01 04:02:11","23.8","73"
"1401575838","2014/06/01 04:07:18","23.7","73"
"1401576146","2014/06/01 04:12:26","23.7","74"
"1401576454","2014/06/01 04:17:34","23.7","74"
"1401576761","2014/06/01 04:22:41","23.7","74"
"1401577069","2014/06/01 04:27:49","23.6","74"
"1401577376","2014/06/01 04:32:56","23.6","74"
"1401577684","2014/06/01 04:38:04","23.6","74"
"1401577992","2014/06/01 04:43:12","23.6","74"
"1401578299","2014/06/01 04:48:19","23.5","74"
"1401578607","2014/06/01 04:53:27","23.5","75"
"1401578914","2014/06/01 04:58:34","23.5","75"
"1401579222","2014/06/01 05:03:42","23.5","75"
"1401579478","2014/06/01 05:07:58","23.5","75"
"1401579786","2014/06/01 05:13:06","23.5","76"
"1401580094","2014/06/01 05:18:14","23.4","76"
"1401580401","2014/06/01 05:23:21","23.4","76"
"1401580709","2014/06/01 05:28:29","23.4","76"
"1401581017","2014/06/01 05:33:37","23.4","76"
"1401581324","2014/06/01 05:38:44","23.4","76"
"1401581632","2014/06/01 05:43:52","23.4","76"
"1401581939","2014/06/01 05:48:59","23.4","76"
"1401582247","2014/06/01 05:54:07","23.4","76"
"1401582555","2014/06/01 05:59:15","23.4","77"
"1401582862","2014/06/01 06:04:22","23.4","77"
"1401583170","2014/06/01 06:09:30","23.3","77"
"1401583477","2014/06/01 06:14:37","23.3","78"
"1401583734","2014/06/01 06:18:54","23.3","77"
"1401584041","2014/06/01 06:24:01","23.3","78"
"1401584349","2014/06/01 06:29:09","23.3","78"
"1401584657","2014/06/01 06:34:17","23.3","78"
"1401584964","2014/06/01 06:39:24","23.4","78"
"1401585272","2014/06/01 06:44:32","23.4","78"
"1401585580","2014/06/01 06:49:40","23.4","78"
"1401585887","2014/06/01 06:54:47","23.5","78"
"1401586195","2014/06/01 06:59:55","23.5","77"
"1401586502","2014/06/01 07:05:02","23.5","77"
"1401586810","2014/06/01 07:10:10","23.5","77"
"1401587118","2014/06/01 07:15:18","23.6","77"
"1401587425","2014/06/01 07:20:25","23.6","77"
"1401587733","2014/06/01 07:25:33","23.7","76"
"1401587989","2014/06/01 07:29:49","23.8","76"
"1401588297","2014/06/01 07:34:57","23.9","76"
"1401588604","2014/06/01 07:40:04","23.9","75"
"1401588912","2014/06/01 07:45:12","24","74"
"1401589220","2014/06/01 07:50:20","24.1","72"
"1401589527","2014/06/01 07:55:27","24.2","72"
"1401589835","2014/06/01 08:00:35","24.3","72"
"1401590143","2014/06/01 08:05:43","24.4","71"
"1401590450","2014/06/01 08:10:50","24.5","71"
"1401590758","2014/06/01 08:15:58","24.6","71"
"1401591065","2014/06/01 08:21:05","24.7","70"
"1401591373","2014/06/01 08:26:13","24.8","70"
"1401591681","2014/06/01 08:31:21","24.9","69"
"1401591937","2014/06/01 08:35:37","25","69"
"1401592245","2014/06/01 08:40:45","25.1","68"
"1401592552","2014/06/01 08:45:52","25.2","69"
"1401592860","2014/06/01 08:51:00","25.3","68"
"1401593167","2014/06/01 08:56:07","25.4","67"
"1401593475","2014/06/01 09:01:15","25.5","67"
"1401593783","2014/06/01 09:06:23","25.5","66"
"1401594090","2014/06/01 09:11:30","25.6","66"
"1401594398","2014/06/01 09:16:38","25.8","66"
"1401594705","2014/06/01 09:21:45","25.9","65"
"1401595013","2014/06/01 09:26:53","26","65"
"1401595321","2014/06/01 09:32:01","26.1","65"
"1401595628","2014/06/01 09:37:08","26.2","65"
"1401595936","2014/06/01 09:42:16","26.4","65"
"1401596192","2014/06/01 09:46:32","26.4","65"
"1401596500","2014/06/01 09:51:40","26.6","65"
"1401596808","2014/06/01 09:56:48","26.7","65"
"1401597115","2014/06/01 10:01:55","26.8","64"
"1401597423","2014/06/01 10:07:03","26.9","65"
"1401597730","2014/06/01 10:12:10","27","64"
"1401598038","2014/06/01 10:17:18","27.2","64"
"1401598346","2014/06/01 10:22:26","27.3","64"
"1401598653","2014/06/01 10:27:33","27.4","64"
"1401598961","2014/06/01 10:32:41","27.5","64"
"1401599268","2014/06/01 10:37:48","27.6","64"
"1401599576","2014/06/01 10:42:56","27.6","64"
"1401599884","2014/06/01 10:48:04","27.7","64"
"1401600140","2014/06/01 10:52:20","27.8","63"
"1401600448","2014/06/01 10:57:28","27.8","64"
"1401600755","2014/06/01 11:02:35","27.9","63"
"1401601063","2014/06/01 11:07:43","28","63"
"1401601371","2014/06/01 11:12:51","28.1","62"
"1401601678","2014/06/01 11:17:58","28.1","62"
"1401601986","2014/06/01 11:23:06","28.2","61"
"1401602293","2014/06/01 11:28:13","28.3","62"
"1401602601","2014/06/01 11:33:21","28.4","62"
"1401602909","2014/06/01 11:38:29","28.5","61"
"1401603216","2014/06/01 11:43:36","28.6","60"
"1401603524","2014/06/01 11:48:44","28.7","61"
"1401603831","2014/06/01 11:53:51","28.7","61"
"1401604139","2014/06/01 11:58:59","28.8","61"
"1401604395","2014/06/01 12:03:15","28.8","61"
"1401604703","2014/06/01 12:08:23","28.9","61"
"1401605011","2014/06/01 12:13:31","29","61"
"1401605318","2014/06/01 12:18:38","29.1","61"
"1401605626","2014/06/01 12:23:46","29.1","61"
"1401605934","2014/06/01 12:28:54","29.2","59"
"1401606241","2014/06/01 12:34:01","29.1","59"
"1401606549","2014/06/01 12:39:09","29.1","60"
"1401606856","2014/06/01 12:44:16","29","60"
"1401607164","2014/06/01 12:49:24","29","59"
"1401607472","2014/06/01 12:54:32","29","60"
"1401607779","2014/06/01 12:59:39","29","59"
"1401608087","2014/06/01 13:04:47","29","59"
"1401608394","2014/06/01 13:09:54","29.1","58"
"1401608651","2014/06/01 13:14:11","29.1","59"
"1401608958","2014/06/01 13:19:18","29.1","58"
"1401609266","2014/06/01 13:24:26","29","58"
"1401609574","2014/06/01 13:29:34","29","58"
"1401609881","2014/06/01 13:34:41","29","58"
"1401610189","2014/06/01 13:39:49","28.9","58"
"1401610497","2014/06/01 13:44:57","29","57"
"1401610804","2014/06/01 13:50:04","29.1","58"
"1401611112","2014/06/01 13:55:12","29.2","58"
"1401611419","2014/06/01 14:00:19","29.3","59"
"1401611727","2014/06/01 14:05:27","29.4","58"
"1401612035","2014/06/01 14:10:35","29.5","57"
"1401612342","2014/06/01 14:15:42","29.6","56"
"1401612599","2014/06/01 14:19:59","29.6","56"
"1401612906","2014/06/01 14:25:06","29.6","55"
"1401613214","2014/06/01 14:30:14","29.7","56"
"1401613521","2014/06/01 14:35:21","29.7","56"
"1401613829","2014/06/01 14:40:29","29.8","55"
"1401614137","2014/06/01 14:45:37","29.8","55"
"1401614444","2014/06/01 14:50:44","29.8","56"
"1401614752","2014/06/01 14:55:52","29.8","56"
"1401615059","2014/06/01 15:00:59","29.8","55"
"1401615367","2014/06/01 15:06:07","29.9","54"
"1401615675","2014/06/01 15:11:15","29.9","54"
"1401615982","2014/06/01 15:16:22","29.9","54"
"1401616290","2014/06/01 15:21:30","29.9","53"
"1401616598","2014/06/01 15:26:38","29.9","53"
"1401616854","2014/06/01 15:30:54","29.9","53"
"1401617162","2014/06/01 15:36:02","29.9","52"
"1401617469","2014/06/01 15:41:09","30","52"
"1401617777","2014/06/01 15:46:17","30","51"
"1401618084","2014/06/01 15:51:24","30","51"
"1401618392","2014/06/01 15:56:32","30","50"
"1401618700","2014/06/01 16:01:40","30","50"
"1401619007","2014/06/01 16:06:47","30","50"
"1401619315","2014/06/01 16:11:55","30","50"
"1401619622","2014/06/01 16:17:02","30","50"
"1401619930","2014/06/01 16:22:10","29.9","50"
"1401620238","2014/06/01 16:27:18","29.9","51"
"1401620545","2014/06/01 16:32:25","29.9","51"
"1401620853","2014/06/01 16:37:33","29.8","52"
"1401621109","2014/06/01 16:41:49","29.8","52"
"1401621417","2014/06/01 16:46:57","29.8","51"
"1401621725","2014/06/01 16:52:05","29.7","52"
"1401622032","2014/06/01 16:57:12","29.7","52"
"1401622340","2014/06/01 17:02:20","29.7","52"
"1401622647","2014/06/01 17:07:27","29.7","52"
"1401622955","2014/06/01 17:12:35","29.7","52"
"1401623263","2014/06/01 17:17:43","29.7","52"
"1401623570","2014/06/01 17:22:50","29.7","52"
"1401623878","2014/06/01 17:27:58","29.7","53"
"1401624185","2014/06/01 17:33:05","29.7","53"
"1401624493","2014/06/01 17:38:13","29.6","53"
"1401624801","2014/06/01 17:43:21","29.6","53"
"1401625108","2014/06/01 17:48:28","29.5","53"
"1401625365","2014/06/01 17:52:45","29.5","54"
"1401625672","2014/06/01 17:57:52","29.4","54"
"1401625980","2014/06/01 18:03:00","29.4","55"
"1401626288","2014/06/01 18:08:08","29.3","55"
"1401626595","2014/06/01 18:13:15","29.3","55"
"1401626903","2014/06/01 18:18:23","29.2","55"
"1401627210","2014/06/01 18:23:30","29.2","55"
"1401627518","2014/06/01 18:28:38","29.1","55"
"1401627826","2014/06/01 18:33:46","29.1","56"
"1401628133","2014/06/01 18:38:53","29","56"
"1401628441","2014/06/01 18:44:01","28.9","56"
"1401628748","2014/06/01 18:49:08","28.9","56"
"1401629056","2014/06/01 18:54:16","28.9","56"
"1401629312","2014/06/01 18:58:32","28.8","56"
"1401629620","2014/06/01 19:03:40","28.8","56"
"1401629928","2014/06/01 19:08:48","28.7","56"
"1401630235","2014/06/01 19:13:55","28.7","56"
"1401630543","2014/06/01 19:19:03","28.6","57"
"1401630851","2014/06/01 19:24:11","28.6","57"
"1401631158","2014/06/01 19:29:18","28.5","57"
"1401631466","2014/06/01 19:34:26","28.5","57"
"1401631773","2014/06/01 19:39:33","28.5","57"
"1401632081","2014/06/01 19:44:41","28.4","57"
"1401632389","2014/06/01 19:49:49","28.4","57"
"1401632696","2014/06/01 19:54:56","28.3","57"
"1401632953","2014/06/01 19:59:13","28.3","58"
"1401633260","2014/06/01 20:04:20","28.3","58"
"1401633568","2014/06/01 20:09:28","28.2","58"
"1401633875","2014/06/01 20:14:35","28.2","58"
"1401634183","2014/06/01 20:19:43","28.2","59"
"1401634491","2014/06/01 20:24:51","28.1","59"
"1401634798","2014/06/01 20:29:58","28.1","59"
"1401635106","2014/06/01 20:35:06","28","59"
"1401635413","2014/06/01 20:40:13","28","60"
"1401635721","2014/06/01 20:45:21","27.9","60"
"1401636029","2014/06/01 20:50:29","27.9","60"
"1401636336","2014/06/01 20:55:36","27.8","61"
"1401636644","2014/06/01 21:00:44","27.8","61"
"1401636952","2014/06/01 21:05:52","27.8","61"
"1401637208","2014/06/01 21:10:08","27.7","61"
"1401637516","2014/06/01 21:15:16","27.7","61"
"1401637823","2014/06/01 21:20:23","27.7","61"
"1401638131","2014/06/01 21:25:31","27.7","62"
"1401638438","2014/06/01 21:30:38","27.6","62"
"1401638746","2014/06/01 21:35:46","27.6","62"
"1401639054","2014/06/01 21:40:54","27.6","62"
"1401639361","2014/06/01 21:46:01","27.6","63"
"1401639669","2014/06/01 21:51:09","27.6","63"
"1401639976","2014/06/01 21:56:16","27.6","63"
"1401640284","2014/06/01 22:01:24","27.6","64"
"1401640592","2014/06/01 22:06:32","27.6","64"
"1401640899","2014/06/01 22:11:39","27.6","64"
"1401641156","2014/06/01 22:15:56","27.5","64"
"1401641463","2014/06/01 22:21:03","27.5","64"
"1401641771","2014/06/01 22:26:11","27.5","65"
"1401642079","2014/06/01 22:31:19","27.4","65"
"1401642386","2014/06/01 22:36:26","27.4","65"
"1401642694","2014/06/01 22:41:34","27.3","65"
"1401643001","2014/06/01 22:46:41","27.3","65"
"1401643309","2014/06/01 22:51:49","27.3","66"
"1401643617","2014/06/01 22:56:57","27.2","66"
"1401643924","2014/06/01 23:02:04","27.2","66"
"1401644232","2014/06/01 23:07:12","27.2","66"
"1401644539","2014/06/01 23:12:19","27.1","66"
"1401644847","2014/06/01 23:17:27","27.1","67"
"1401645155","2014/06/01 23:22:35","27.1","67"
"1401645411","2014/06/01 23:26:51","27.1","67"
"1401645719","2014/06/01 23:31:59","27","67"
"1401646026","2014/06/01 23:37:06","27","67"
"1401646334","2014/06/01 23:42:14","27","67"
"1401646642","2014/06/01 23:47:22","27","67"
"1401646949","2014/06/01 23:52:29","26.9","67"
"1401647257","2014/06/01 23:57:37","26.9","68"
"1401647564","2014/06/02 00:02:44","26.9","67"
"1401647872","2014/06/02 00:07:52","26.8","67"
"1401648180","2014/06/02 00:13:00","26.8","67"
"1401648487","2014/06/02 00:18:07","26.8","67"
"1401648795","2014/06/02 00:23:15","26.8","67"
"1401649102","2014/06/02 00:28:22","26.7","67"
"1401649359","2014/06/02 00:32:39","26.7","68"
"1401649666","2014/06/02 00:37:46","26.7","68"
"1401649974","2014/06/02 00:42:54","26.6","67"
"1401650282","2014/06/02 00:48:02","26.6","67"
"1401650589","2014/06/02 00:53:09","26.6","67"
"1401650897","2014/06/02 00:58:17","26.6","67"
"1401651205","2014/06/02 01:03:25","26.5","67"
"1401651512","2014/06/02 01:08:32","26.5","67"
"1401651820","2014/06/02 01:13:40","26.5","67"
"1401652127","2014/06/02 01:18:47","26.5","66"
"1401652435","2014/06/02 01:23:55","26.5","66"
"1401652743","2014/06/02 01:29:03","26.4","66"
"1401653050","2014/06/02 01:34:10","26.4","66"
"1401653358","2014/06/02 01:39:18","26.4","66"
"1401653614","2014/06/02 01:43:34","26.3","67"
"1401653922","2014/06/02 01:48:42","26.3","67"
"1401654229","2014/06/02 01:53:49","26.3","67"
"1401654537","2014/06/02 01:58:57","26.2","67"
"1401654845","2014/06/02 02:04:05","26.2","68"
"1401655152","2014/06/02 02:09:12","26.2","68"
"1401655460","2014/06/02 02:14:20","26.1","68"
"1401655768","2014/06/02 02:19:28","26.1","68"
"1401656075","2014/06/02 02:24:35","26.1","68"
"1401656383","2014/06/02 02:29:43","26.1","69"
"1401656690","2014/06/02 02:34:50","26","69"
"1401656998","2014/06/02 02:39:58","26","69"
"1401657306","2014/06/02 02:45:06","26","69"
"1401657562","2014/06/02 02:49:22","25.9","69"
"1401657870","2014/06/02 02:54:30","25.9","69"
"1401658177","2014/06/02 02:59:37","25.9","70"
"1401658485","2014/06/02 03:04:45","25.8","70"
"1401658792","2014/06/02 03:09:52","25.8","70"
"1401659100","2014/06/02 03:15:00","25.8","70"
"1401659408","2014/06/02 03:20:08","25.7","70"
"1401659715","2014/06/02 03:25:15","25.7","71"
"1401660023","2014/06/02 03:30:23","25.6","71"
"1401660330","2014/06/02 03:35:30","25.6","71"
"1401660638","2014/06/02 03:40:38","25.6","71"
"1401660946","2014/06/02 03:45:46","25.5","72"
"1401661253","2014/06/02 03:50:53","25.5","72"
"1401661561","2014/06/02 03:56:01","25.5","72"
"1401661817","2014/06/02 04:00:17","25.5","72"
"1401662125","2014/06/02 04:05:25","25.5","72"
"1401662433","2014/06/02 04:10:33","25.5","73"
"1401662740","2014/06/02 04:15:40","25.5","73"
"1401663048","2014/06/02 04:20:48","25.4","73"
"1401663355","2014/06/02 04:25:55","25.4","73"
"1401663663","2014/06/02 04:31:03","25.4","74"
"1401663971","2014/06/02 04:36:11","25.4","74"
"1401664272","2014/06/02 04:41:12","25.4","74"
"1401664579","2014/06/02 04:46:19","25.3","74"
"1401664887","2014/06/02 04:51:27","25.3","74"
"1401665195","2014/06/02 04:56:35","25.3","75"
"1401665502","2014/06/02 05:01:42","25.3","75"
"1401665810","2014/06/02 05:06:50","25.2","75"
"1401666118","2014/06/02 05:11:58","25.2","75"
"1401666374","2014/06/02 05:16:14","25.3","76"
"1401666682","2014/06/02 05:21:22","25.3","76"
"1401666989","2014/06/02 05:26:29","25.3","76"
"1401667297","2014/06/02 05:31:37","25.3","76"
"1401667604","2014/06/02 05:36:44","25.3","76"
"1401667912","2014/06/02 05:41:52","25.2","76"
"1401668220","2014/06/02 05:47:00","25.2","76"
"1401668527","2014/06/02 05:52:07","25.2","77"
"1401668835","2014/06/02 05:57:15","25.2","77"
"1401669142","2014/06/02 06:02:22","25.2","77"
"1401669450","2014/06/02 06:07:30","25.2","77"
"1401669758","2014/06/02 06:12:38","25.2","77"
"1401670065","2014/06/02 06:17:45","25.3","77"
"1401670373","2014/06/02 06:22:53","25.3","78"
"1401670629","2014/06/02 06:27:09","25.3","78"
"1401670937","2014/06/02 06:32:17","25.4","78"
"1401671244","2014/06/02 06:37:24","25.5","78"
"1401671552","2014/06/02 06:42:32","25.6","78"
"1401671860","2014/06/02 06:47:40","25.6","77"
"1401672167","2014/06/02 06:52:47","25.7","77"
"1401672475","2014/06/02 06:57:55","25.7","77"
"1401672783","2014/06/02 07:03:03","25.7","77"
"1401673090","2014/06/02 07:08:10","25.8","77"
"1401673398","2014/06/02 07:13:18","25.8","77"
"1401673705","2014/06/02 07:18:25","25.8","77"
"1401674013","2014/06/02 07:23:33","25.8","77"
"1401674321","2014/06/02 07:28:41","25.9","77"
"1401674577","2014/06/02 07:32:57","25.9","77"
"1401674885","2014/06/02 07:38:05","26","76"
"1401675192","2014/06/02 07:43:12","26","77"
"1401675500","2014/06/02 07:48:20","26.1","76"
"1401675807","2014/06/02 07:53:27","26.1","76"
"1401676115","2014/06/02 07:58:35","26.1","76"
"1401676423","2014/06/02 08:03:43","26.1","76"
"1401676730","2014/06/02 08:08:50","26.1","76"
"1401677038","2014/06/02 08:13:58","26.2","77"
"1401677346","2014/06/02 08:19:06","26.2","77"
"1401677653","2014/06/02 08:24:13","26.3","76"
"1401677961","2014/06/02 08:29:21","26.4","76"
"1401678268","2014/06/02 08:34:28","26.4","76"
"1401678576","2014/06/02 08:39:36","26.5","76"
"1401678832","2014/06/02 08:43:52","26.5","75"
"1401679140","2014/06/02 08:49:00","26.6","75"
"1401679448","2014/06/02 08:54:08","26.7","76"
"1401679755","2014/06/02 08:59:15","26.7","75"
"1401680063","2014/06/02 09:04:23","26.8","75"
"1401680370","2014/06/02 09:09:30","26.8","75"
"1401680678","2014/06/02 09:14:38","26.9","74"
"1401680986","2014/06/02 09:19:46","27","73"
"1401681293","2014/06/02 09:24:53","27.1","73"
"1401681601","2014/06/02 09:30:01","27.1","72"
"1401681909","2014/06/02 09:35:09","27.2","72"
"1401682216","2014/06/02 09:40:16","27.3","72"
"1401682524","2014/06/02 09:45:24","27.4","71"
"1401682780","2014/06/02 09:49:40","27.4","71"
"1401683088","2014/06/02 09:54:48","27.4","71"
"1401683395","2014/06/02 09:59:55","27.4","70"
"1401683703","2014/06/02 10:05:03","27.5","69"
"1401684011","2014/06/02 10:10:11","27.6","68"
"1401684318","2014/06/02 10:15:18","27.6","67"
"1401684626","2014/06/02 10:20:26","27.7","66"
"1401684933","2014/06/02 10:25:33","27.7","65"
"1401685241","2014/06/02 10:30:41","27.8","63"
"1401685549","2014/06/02 10:35:49","27.9","63"
"1401685856","2014/06/02 10:40:56","28","64"
"1401686164","2014/06/02 10:46:04","28","63"
"1401686472","2014/06/02 10:51:12","28.1","62"
"1401686779","2014/06/02 10:56:19","28.2","62"
"1401687036","2014/06/02 11:00:36","28.2","62"
"1401687343","2014/06/02 11:05:43","28.3","62"
"1401687651","2014/06/02 11:10:51","28.4","61"
"1401687958","2014/06/02 11:15:58","28.5","61"
"1401688266","2014/06/02 11:21:06","28.5","61"
"1401688574","2014/06/02 11:26:14","28.6","61"
"1401688881","2014/06/02 11:31:21","28.7","61"
"1401689189","2014/06/02 11:36:29","28.7","61"
"1401689496","2014/06/02 11:41:36","28.8","61"
"1401689804","2014/06/02 11:46:44","28.9","60"
"1401690112","2014/06/02 11:51:52","29","59"
"1401690419","2014/06/02 11:56:59","29","60"
"1401690727","2014/06/02 12:02:07","29.1","59"
"1401690983","2014/06/02 12:06:23","29.1","58"
"1401691291","2014/06/02 12:11:31","29.2","58"
"1401691598","2014/06/02 12:16:38","29.2","59"
"1401691906","2014/06/02 12:21:46","29.3","59"
"1401692214","2014/06/02 12:26:54","29.4","58"
"1401692521","2014/06/02 12:32:01","29.5","58"
"1401692829","2014/06/02 12:37:09","29.5","59"
"1401693137","2014/06/02 12:42:17","29.6","59"
"1401693444","2014/06/02 12:47:24","29.6","58"
"1401693752","2014/06/02 12:52:32","29.7","58"
"1401694059","2014/06/02 12:57:39","29.7","59"
"1401694367","2014/06/02 13:02:47","29.7","58"
"1401694675","2014/06/02 13:07:55","29.8","59"
"1401694931","2014/06/02 13:12:11","29.8","59"
"1401695239","2014/06/02 13:17:19","29.8","59"
"1401695546","2014/06/02 13:22:26","29.8","59"
"1401695854","2014/06/02 13:27:34","29.9","59"
"1401696161","2014/06/02 13:32:41","29.9","59"
"1401696469","2014/06/02 13:37:49","30","59"
"1401696777","2014/06/02 13:42:57","30","58"
"1401697084","2014/06/02 13:48:04","30.1","58"
"1401697392","2014/06/02 13:53:12","30.1","58"
"1401697700","2014/06/02 13:58:20","30.2","58"
"1401698007","2014/06/02 14:03:27","30.3","58"
"1401698315","2014/06/02 14:08:35","30.3","57"
"1401698622","2014/06/02 14:13:42","30.3","57"
"1401698879","2014/06/02 14:17:59","30.4","57"
"1401699186","2014/06/02 14:23:06","30.4","56"
"1401699494","2014/06/02 14:28:14","30.3","58"
"1401699802","2014/06/02 14:33:22","30.3","57"
"1401700141","2014/06/02 14:39:01","30.3","57"
"1401700398","2014/06/02 14:43:18","30.3","57"
"1401700705","2014/06/02 14:48:25","30.3","57"
"1401701013","2014/06/02 14:53:33","30.2","57"
"1401701320","2014/06/02 14:58:40","30.2","56"
"1401701628","2014/06/02 15:03:48","30.2","57"
"1401701936","2014/06/02 15:08:56","30.2","58"
"1401702243","2014/06/02 15:14:03","30.2","57"
"1401702551","2014/06/02 15:19:11","30.2","57"
"1401702859","2014/06/02 15:24:19","30.1","57"
"1401703166","2014/06/02 15:29:26","30.1","57"
"1401703474","2014/06/02 15:34:34","30.2","57"
"1401703781","2014/06/02 15:39:41","30.2","57"
"1401704089","2014/06/02 15:44:49","30.2","58"
"1401704397","2014/06/02 15:49:57","30.3","58"
"1401704653","2014/06/02 15:54:13","30.3","57"
"1401704961","2014/06/02 15:59:21","30.3","56"
"1401705268","2014/06/02 16:04:28","30.3","57"
"1401705576","2014/06/02 16:09:36","30.3","57"
"1401705883","2014/06/02 16:14:43","30.3","56"
"1401706191","2014/06/02 16:19:51","30.3","57"
"1401706499","2014/06/02 16:24:59","30.3","56"
"1401706806","2014/06/02 16:30:06","30.3","56"
"1401707114","2014/06/02 16:35:14","30.3","56"
"1401709714","2014/06/02 17:18:34","30.3","55"
"1401709969","2014/06/02 17:22:49","30.3","56"
"1401710278","2014/06/02 17:27:58","30.3","56"
"1401710585","2014/06/02 17:33:05","30.2","56"
"1401710893","2014/06/02 17:38:13","30.2","56"
"1401711199","2014/06/02 17:43:19","30.1","56"
"1401711507","2014/06/02 17:48:27","30.1","56"
"1401711815","2014/06/02 17:53:35","30.1","57"
"1401712122","2014/06/02 17:58:42","30","57"
"1401712430","2014/06/02 18:03:50","30","58"
"1401712738","2014/06/02 18:08:58","29.9","58"
"1401713045","2014/06/02 18:14:05","29.9","58"
"1401713301","2014/06/02 18:18:21","29.6","58"
"1401713609","2014/06/02 18:23:29","29.2","58"
"1401713917","2014/06/02 18:28:37","28.8","59"
"1401714225","2014/06/02 18:33:45","28.4","61"
"1401714532","2014/06/02 18:38:52","27.9","65"
"1401714841","2014/06/02 18:44:01","27.4","67"
"1401715147","2014/06/02 18:49:07","26.9","70"
"1401715455","2014/06/02 18:54:15","26.5","71"